RH
89 98 96 96 93 92 83 73 76 78 79 77 75 68 53 38 45 58 71 78 85 82 84 87 89 92 94 93 95 84 82 77 80
98 94 97 90 84 84 78 70 73 74 77 78 70 59 56 43 50 60 73 90 88 81 73 78 83 88 90 94 94 95 95 88 87
95 89 96 84 72 78 75 68 66 65 63 63 59 53 53 47 48 59 68 91 96 82 76 61 69 80 84 88 92 94 95 94 94
96 95 95 70 49 51 58 60 60 62 58 55 53 49 51 49 47 49 57 76 96 86 76 77 64 66 67 80 83 85 94 94 94
91 87 87 62 54 53 52 50 50 53 59 57 53 49 48 48 45 46 47 57 83 75 77 77 77 62 54 57 70 83 85 89 95
93 83 82 62 60 56 54 53 52 51 50 53 53 51 48 45 44 44 44 43 76 81 71 75 79 72 63 59 59 57 60 71 82
68 69 60 58 54 53 51 50 49 46 46 46 49 53 50 45 44 43 43 44 57 68 79 69 74 74 73 68 68 63 60 58 59
62 60 58 54 52 50 49 47 44 49 51 50 48 46 44 44 44 43 44 44 48 59 62 74 74 72 77 79 73 71 63 61 57
65 61 58 54 49 48 49 48 47 52 61 60 57 53 56 56 54 54 54 52 49 52 57 66 75 77 85 89 87 78 74 73 66
73 77 72 66 60 52 46 58 66 67 67 67 67 66 66 66 66 65 66 67 63 59 61 70 78 92 90 94 97 93 85 82 78
76 75 71 67 60 62 59 72 72 71 68 67 70 70 71 71 71 70 68 68 68 67 66 68 77 77 76 81 92 89 90 88 87
65 66 62 62 64 68 70 68 66 67 66 69 74 72 72 71 70 68 63 59 63 65 69 73 72 74 68 70 78 90 92 91 85
63 66 65 61 62 62 64 65 64 63 65 68 68 72 71 66 62 60 58 61 61 57 68 73 81 78 74 71 78 84 90 88 84
65 69 72 69 67 61 59 58 60 63 70 72 72 65 61 60 63 62 62 63 66 68 67 76 78 78 68 70 72 82 77 84 78
68 70 75 75 72 70 68 68 68 72 70 70 66 60 61 65 62 62 62 63 64 68 68 70 79 74 69 71 71 71 77 77 73
77 71 75 77 75 72 72 73 75 74 66 67 64 65 63 63 62 64 64 62 64 70 71 71 82 76 72 75 65 71 74 77 76
75 73 75 76 76 76 75 78 79 70 70 76 79 90 73 63 64 62 62 64 65 66 67 72 79 76 73 65 70 69 71 72 77
63 70 79 82 81 79 86 83 81 78 70 70 78 88 91 93 72 70 70 71 70 68 70 74 74 70 68 68 68 70 71 71 88
95 78 69 86 83 82 75 75 75 75 77 80 85 89 95 98 96 74 74 73 75 73 71 72 70 70 71 71 73 73 70 74 88
82 80 95 78 78 76 71 72 82 88 81 86 96 91 91 92 100 96 86 79 74 80 77 74 72 72 73 76 76 74 71 74 84
Wind_Speed
14 15 17 17 17 18 17 15 14 15 14 13 12 11 12 13 14 14 14 14 12 13 13 12 11 10 10 10 9 9 10 9 8
14 15 16 16 17 17 16 14 14 13 12 11 10 10 11 11 11 12 12 12 11 12 12 12 12 11 11 10 9 8 7 7 7
16 16 15 16 16 17 15 13 11 10 9 8 8 8 8 9 10 9 9 9 8 9 10 11 11 10 10 10 10 9 8 8 7
16 16 16 16 17 15 14 12 10 9 8 8 7 6 6 6 7 7 6 6 5 7 8 9 10 10 10 9 9 9 9 9 9
16 15 14 15 15 14 12 11 9 7 7 6 5 4 3 3 4 4 5 5 4 5 6 7 8 9 10 9 9 9 8 8 8
16 15 13 13 11 10 9 8 8 7 6 5 3 2 1 1 2 3 3 4 2 4 6 6 6 7 8 9 9 8 7 7 7
14 13 12 10 9 8 8 7 6 5 5 3 3 1 1 2 2 2 2 3 3 4 5 5 5 6 6 7 8 8 6 5 4
13 13 12 11 10 9 8 7 6 6 4 3 2 3 3 3 3 3 3 3 3 4 5 6 5 5 5 5 6 7 7 6 4
14 12 11 11 10 10 8 7 6 5 3 2 2 2 3 4 4 4 5 5 5 5 5 6 7 6 5 5 6 6 5 5 5
13 11 10 10 11 10 10 8 7 6 5 4 4 4 4 5 6 6 6 6 7 7 7 7 7 6 8 7 7 7 6 6 5
14 12 12 10 10 9 10 9 7 6 6 5 6 5 5 6 6 6 8 9 10 10 11 9 9 9 9 10 9 11 10 10 8
14 13 13 12 10 10 10 9 8 8 8 7 6 7 7 6 7 9 12 12 12 13 13 13 13 12 9 10 9 9 11 13 13
16 14 14 13 13 13 12 11 10 8 8 8 7 7 7 9 10 12 13 16 15 14 13 15 15 14 13 12 10 10 8 10 11
20 18 15 14 14 14 12 11 10 8 8 8 8 10 10 14 15 16 17 18 18 17 17 15 14 14 14 13 11 9 9 8 8
22 21 18 16 16 15 14 12 11 11 9 10 11 14 15 16 16 17 19 20 20 18 15 15 15 12 13 12 11 9 7 6 5
26 24 21 18 18 16 14 13 13 12 10 11 13 14 16 18 19 18 18 15 15 14 14 14 13 11 11 11 10 8 6 4 5
27 27 24 21 18 16 15 14 11 10 8 5 5 3 7 8 4 6 12 7 4 4 7 7 7 9 10 9 8 9 7 6 5
22 26 25 22 17 17 13 11 11 9 9 10 5 2 3 3 9 6 8 6 6 6 7 8 9 10 10 8 8 8 7 4 1
18 23 22 23 16 13 11 10 12 14 13 13 12 14 9 2 4 2 3 3 3 3 6 8 9 10 10 8 8 6 4 1 1
13 15 18 16 8 5 7 10 13 12 13 13 12 7 9 11 6 4 4 3 8 6 7 10 10 11 11 9 8 7 5 4 1
Wind_Direction
137 135 134 134 135 137 134 127 122 119 122 116 109 93 85 94 97 91 83 75 72 68 66 66 66 66 64 58 55 56 55 47 46
137 142 136 137 140 142 140 131 125 120 120 119 107 93 89 89 92 86 80 75 70 66 61 62 63 63 63 60 57 56 49 49 45
150 147 142 142 144 148 147 141 134 126 119 118 112 99 93 88 88 86 81 75 69 56 51 52 55 59 60 58 56 54 52 52 48
154 151 149 150 151 152 154 152 147 138 129 124 114 103 103 86 80 77 76 77 64 48 46 49 46 46 48 52 53 54 54 51 50
161 160 155 153 154 156 158 157 156 153 150 146 131 113 104 106 84 67 59 56 28 26 30 34 37 35 33 35 36 40 46 52 55
165 163 164 162 161 160 158 160 162 166 171 178 172 145 79 57 53 41 37 35 22 345 3 12 17 21 21 21 21 20 30 38 49
170 172 169 172 173 175 173 174 181 184 181 197 219 246 333 352 347 340 349 0 2 339 332 344 352 357 4 7 10 10 15 28 45
179 181 181 184 187 189 192 195 194 194 199 213 234 266 299 325 350 340 318 312 330 323 327 321 326 323 330 343 4 12 11 5 11
189 190 194 200 202 202 206 208 213 203 218 233 233 263 304 328 323 322 318 309 300 304 311 309 297 301 307 317 326 341 2 358 357
199 204 210 216 216 214 211 206 205 217 235 251 268 281 290 295 302 311 314 310 301 291 298 296 302 293 292 291 290 305 308 315 326
219 219 225 221 218 214 211 216 221 232 247 257 268 276 280 289 294 301 301 293 289 285 283 286 278 285 298 289 278 278 285 291 296
222 225 227 225 222 220 219 221 233 240 247 257 254 274 283 283 287 287 293 303 298 291 279 278 277 278 291 293 294 286 280 271 275
223 224 229 228 227 226 230 234 237 242 250 263 276 276 278 290 291 296 297 307 303 291 273 279 277 268 269 281 300 307 296 296 290
224 226 230 224 226 224 228 229 234 243 255 262 264 280 290 293 294 288 292 294 293 293 283 280 275 268 252 266 281 294 297 300 308
229 229 227 223 221 224 223 229 234 240 264 273 285 291 289 289 288 292 292 291 289 285 285 280 267 260 243 253 275 286 291 292 301
233 231 229 226 225 227 225 229 236 248 262 281 290 294 294 293 290 289 296 301 292 277 276 270 264 255 226 239 260 266 268 293 311
234 233 228 227 227 227 227 231 236 248 256 267 304 316 311 291 302 309 300 304 331 314 288 267 226 210 219 234 249 255 263 280 298
238 229 232 227 224 227 232 238 231 252 270 278 258 315 256 320 290 283 269 291 291 275 261 231 216 219 222 235 251 250 261 262 16
241 246 238 226 216 229 241 243 251 253 256 275 271 263 271 291 322 10 7 321 306 273 253 241 229 229 234 247 256 245 228 215 60
273 274 248 241 248 270 280 276 266 261 267 267 266 246 249 258 245 295 312 310 309 281 255 250 245 239 236 237 225 216 217 245 308